Regional Weather Roundup
Issued by NWS

Home | Current Version | Previous Version | Text Only | Print | Product List | Glossary Off
Versions: 1 2 3 4 5 6 7 8 9 10 11 12 13 14 15 16 17 18 19 20 21 22 23 24 25 26 27 28 29 30 31 32 33 34 35 36 37 38 39 40 41 42 43 44 45 46 47 48 49 50

000
ASUS43 KFSD 281010
RWRSD

WEATHER ROUNDUP FOR SOUTH DAKOTA
NATIONAL WEATHER SERVICE SIOUX FALLS SD
400 AM CST SUN DEC 28 2014

NOTE: "FAIR" INDICATES FEW OR NO CLOUDS BELOW 12,000 FEET WITH NO
SIGNIFICANT WEATHER AND/OR OBSTRUCTIONS TO VISIBILITY.


SDZ001>005-009-010-012>017-281100-
NORTHWEST AND NORTH CENTRAL SOUTH DAKOTA

CITY           SKY/WX    TMP DP  RH WIND       PRES   REMARKS
BUFFALO          N/A     17   9  70 NW5       29.86S WCI  10
FAITH            N/A     19  12  74 S6        29.97F WCI  11
MOBRIDGE       MOCLDY    10   7  87 CALM      30.01R
$$

SDZ012>016-024>037-041>051-057-063-072>074-281100-
SOUTHWEST AND SOUTH CENTRAL SOUTH DAKOTA

CITY           SKY/WX    TMP DP  RH WIND       PRES   REMARKS
RAPID CTY ARPT CLEAR     10   3  73 CALM      29.96S
PIERRE         CLEAR     12   8  84 SW8       30.04S WCI   0
CUSTER         CLEAR     13   2  61 W7        29.87S WCI   3
ELLSWORTH AFB  CLEAR     12   3  67 W5        29.94F WCI   4
PHILIP         CLOUDY    12   7  80 W7        30.02F WCI   1
PINE RIDGE     PTCLDY     2  -3  80 E3        29.99F
SPEARFISH      FAIR      16   5  62 CALM      29.92S
WINNER         FAIR      16   6  65 SW7       30.05F WCI   6
$$

SDZ004>011-016>023-039-040-281100-
NORTHEAST SOUTH DAKOTA

CITY           SKY/WX    TMP DP  RH WIND       PRES   REMARKS
ABERDEEN       CLOUDY    11   6  81 CALM      30.08S
WATERTOWN      PTCLDY     5   3  91 CALM      30.04S
SISSETON         N/A     17  15  92 NW6       30.06S WCI   9
$$

SDZ017-020-022-023-036>040-048>070-281100-
SOUTHEAST SOUTH DAKOTA

CITY           SKY/WX    TMP DP  RH WIND       PRES   REMARKS
SIOUX FALLS    PTCLDY     2   0  91 CALM      30.08S
HURON          PTCLDY     1  -1  91 CALM      30.08S
CHAMBERLAIN    CLEAR     10   6  82 W3        30.07S
MITCHELL       CLEAR     10   6  84 W5        30.09S WCI   2
YANKTON        PTCLDY     7   3  85 CALM      30.12S
$$

ABBREVIATIONS USED IN REMARKS
   TC - TEMPERATURE IN CELSIUS
  WCI - WIND CHILL INDEX
   HX - HEAT INDEX
  VSB - VISIBILITY




USA.gov is the U.S. government's official web portal to all federal, state and local government web resources and services.